Tracking 32579 objects as of 15-Dec-2025
HD Live streaming from Space Station
objects crossing your sky now

STARLINK-32599

Track STARLINK-32599 now!
10-day predictions
STARLINK-32599 is classified as:


NORAD ID: 62048
Int'l Code: 2024-216S
Perigee: 488.9 km
Apogee: 491.8 km
Inclination: 43.0 °
Period: 94.3 minutes
Semi major axis: 6861 km
RCS: Unknown
Launch date: November 21, 2024
Source: United States (US)
Launch site: AIR FORCE EASTERN TEST RANGE (AFETR)
Your satellite tracking list
Your tracking list is empty




NASA's NSSDC Master Catalog

Two Line Element Set (TLE):
1 62048U 24216S   25348.37569906  .00037034  00000-0  13505-2 0  9995
2 62048  43.0036  25.4241 0002107 275.9265  84.1346 15.27532522 60749
Source of the keplerian elements: AFSPC